Location: Gniazdowice
(50.2124°N, 20.2673°E)
Time: 02:17:36
(UTC+00:00)

Cosmos 2219 Rocket - Pass Details

Date: 23 May 2024
Orbit: 826 x 847 km, 71.0° (Epoch: 18 June)

Event Time Altitude Azimuth Distance (km) Brightness Sun altitude
Rises 01:49:23 0° 328° (NNW) 3,400 5.5 -7.3°
Reaches altitude 10° 01:51:51 10° 326° (NW) 2,464 4.8 -7.0°
Maximum altitude 01:57:25 63° 246° (WSW) 937 2.2 -6.3°
Drops below altitude 10° 02:03:00 10° 167° (SSE) 2,460 4.3 -5.7°
Sets 02:05:27 0° 164° (SSE) 3,392 5.1 -5.4°
